Crosby, ND

9:52 PM CDT on September 20, 2017 (GMT -0500)
Crosby

Weather History for KD50 - October, 2012

Change the Weather History Date:

Saturday, October 20, 2012

  Actual Average (KISN) Record (KISN)
Temperature  
Mean Temperature 52 °F -  
Max Temperature 68 °F 57 °F 78 °F (1901)
Min Temperature 37 °F 30 °F 12 °F (1896)
Degree Days  
Heating Degree Days 12    
Growing Degree Days 2 (Base 50)    
Moisture  
Dew Point 33 °F    
Average Humidity 58    
Maximum Humidity 81    
Minimum Humidity 23    
Precipitation  
Precipitation 0.00 in - - ()
Sea Level Pressure  
Sea Level Pressure 29.50 in    
Wind  
Wind Speed 14 mph (WSW)    
Max Wind Speed 18 mph    
Max Gust Speed 23 mph    
Visibility 10 miles    
Events      
Averages and records for this station are not official NWS values.
T = Trace of Precipitation, MM = Missing Value Source: NWS Daily Summary

Daily Weather History Graph

Daily Weather History Graph

Search for Another Location

Airport or City:

Trip Planner

Search our weather history database for the weather conditions in past years. The results will help you decide how hot, cold, wet, or windy it might be!

Date:

Astronomy

Oct. 20, 2012 Rise Set
Actual Time 8:22 AM CDT 6:52 PM CDT
Civil Twilight 7:49 AM CDT 7:24 PM CDT
Nautical Twilight 7:13 AM CDT 8:01 PM CDT
Astronomical Twilight 6:36 AM CDT 8:38 PM CDT
Moon 2:15 PM CDT (10/20) 11:27 PM CDT (10/20)
Length of Visible Light 11h 34m
Length of Day
10h 30m
Waxing Crescent, 34% of the Moon is Illuminated
Oct 20
Waxing Crescent
Oct 21
First Quarter
Oct 29
Full
Nov 6
Last Quarter
Nov 13
New

Hourly Weather History & Observations

Time (CDT) Temp. Windchill Dew Point Humidity Pressure Visibility Wind Dir Wind Speed Gust Speed Precip Events Conditions
12:15 AM 39.2 °F 30.5 °F 32.0 °F 75% 29.51 in 10.0 mi South 16.1 mph - N/A   Clear
12:35 AM 39.2 °F 30.5 °F 32.0 °F 75% 29.51 in 10.0 mi South 16.1 mph 21.9 mph N/A   Clear
12:55 AM 39.2 °F 30.8 °F 32.0 °F 75% 29.51 in 10.0 mi South 15.0 mph 20.7 mph N/A   Clear
1:15 AM 39.2 °F 30.8 °F 32.0 °F 75% 29.51 in 10.0 mi SSW 15.0 mph - N/A   Clear
1:35 AM 39.2 °F 30.8 °F 32.0 °F 75% 29.50 in 10.0 mi SSW 15.0 mph - N/A   Clear
1:55 AM 39.2 °F 30.5 °F 32.0 °F 75% 29.50 in 10.0 mi SSW 16.1 mph - N/A   Clear
2:15 AM 39.2 °F 30.8 °F 32.0 °F 75% 29.50 in 10.0 mi SSW 15.0 mph 20.7 mph N/A   Clear
2:35 AM 39.2 °F 31.2 °F 32.0 °F 75% 29.49 in 10.0 mi SSW 13.8 mph - N/A   Clear
2:55 AM 37.4 °F 28.5 °F 32.0 °F 81% 29.49 in 10.0 mi SSW 15.0 mph - N/A   Clear
3:15 AM 39.2 °F 31.2 °F 32.0 °F 75% 29.49 in 10.0 mi SSW 13.8 mph - N/A   Clear
3:35 AM 39.2 °F 30.5 °F 32.0 °F 75% 29.49 in 10.0 mi SSW 16.1 mph - N/A   Clear
3:55 AM 39.2 °F 30.8 °F 32.0 °F 75% 29.48 in 10.0 mi SSW 15.0 mph - N/A   Clear
4:15 AM 39.2 °F 31.2 °F 32.0 °F 75% 29.48 in 10.0 mi SSW 13.8 mph - N/A   Clear
4:35 AM 39.2 °F 31.2 °F 32.0 °F 75% 29.47 in 10.0 mi SSW 13.8 mph - N/A   Clear
4:55 AM 39.2 °F 31.2 °F 32.0 °F 75% 29.48 in 10.0 mi SSW 13.8 mph - N/A   Clear
5:15 AM 39.2 °F 31.2 °F 32.0 °F 75% 29.47 in 10.0 mi SSW 13.8 mph - N/A   Clear
5:35 AM 39.2 °F 30.8 °F 32.0 °F 75% 29.47 in 10.0 mi SSW 15.0 mph - N/A   Clear
5:55 AM 41.0 °F 33.9 °F 32.0 °F 70% 29.47 in 10.0 mi SSW 12.7 mph - N/A   Clear
6:15 AM 41.0 °F 33.5 °F 32.0 °F 70% 29.46 in 10.0 mi SSW 13.8 mph - N/A   Partly Cloudy
6:35 AM 41.0 °F 33.5 °F 32.0 °F 70% 29.47 in 10.0 mi SSW 13.8 mph - N/A   Partly Cloudy
6:55 AM 41.0 °F 33.5 °F 32.0 °F 70% 29.46 in 10.0 mi SSW 13.8 mph - N/A   Scattered Clouds
7:15 AM 41.0 °F 33.5 °F 32.0 °F 70% 29.47 in 10.0 mi SSW 13.8 mph - N/A   Clear
7:35 AM 41.0 °F 33.9 °F 33.8 °F 76% 29.46 in 10.0 mi South 12.7 mph - N/A   Clear
7:55 AM 39.2 °F 31.6 °F 33.8 °F 81% 29.47 in 10.0 mi SSW 12.7 mph - N/A   Clear
8:15 AM 39.2 °F 32.0 °F 33.8 °F 81% 29.47 in 10.0 mi SSW 11.5 mph - N/A   Clear
8:35 AM 39.2 °F 32.5 °F 33.8 °F 81% 29.47 in 10.0 mi SSW 10.4 mph - N/A   Mostly Cloudy
8:55 AM 39.2 °F 32.5 °F 33.8 °F 81% 29.47 in 10.0 mi SSW 10.4 mph - N/A   Mostly Cloudy
9:15 AM 41.0 °F 34.3 °F 33.8 °F 76% 29.47 in 10.0 mi SSW 11.5 mph - N/A   Mostly Cloudy
9:35 AM 41.0 °F 34.7 °F 35.6 °F 81% 29.47 in 10.0 mi SSW 10.4 mph - N/A   Scattered Clouds
9:55 AM 44.6 °F 38.8 °F 35.6 °F 71% 29.47 in 10.0 mi SSW 11.5 mph - N/A   Partly Cloudy
10:15 AM 46.4 °F 41.1 °F 37.4 °F 71% 29.47 in 10.0 mi SSW 11.5 mph - N/A   Clear
10:35 AM 50.0 °F - 37.4 °F 62% 29.47 in 10.0 mi SSW 10.4 mph - N/A   Clear
10:55 AM 53.6 °F - 37.4 °F 54% 29.47 in 10.0 mi SSW 9.2 mph - N/A   Clear
11:15 AM 55.4 °F - 37.4 °F 51% 29.47 in 10.0 mi SW 15.0 mph - N/A   Clear
11:35 AM 57.2 °F - 37.4 °F 48% 29.47 in 10.0 mi SW 15.0 mph - N/A   Clear
11:55 AM 59.0 °F - 37.4 °F 45% 29.47 in 10.0 mi SW 12.7 mph - N/A   Clear
12:15 PM 62.6 °F - 37.4 °F 39% 29.46 in 10.0 mi SW 11.5 mph 17.3 mph N/A   Clear
12:35 PM 64.4 °F - 37.4 °F 37% 29.46 in 10.0 mi SW 17.3 mph - N/A   Clear
12:55 PM 66.2 °F - 37.4 °F 35% 29.46 in 10.0 mi SW 16.1 mph - N/A   Clear
1:15 PM 66.2 °F - 37.4 °F 35% 29.46 in 10.0 mi SW 16.1 mph 20.7 mph N/A   Clear
1:35 PM 66.2 °F - 37.4 °F 35% 29.46 in 10.0 mi WSW 17.3 mph - N/A   Clear
2:15 PM 66.2 °F - 37.4 °F 35% 29.45 in 10.0 mi SW 16.1 mph 23.0 mph N/A   Clear
2:35 PM 68.0 °F - 37.4 °F 33% 29.45 in 10.0 mi West 15.0 mph 18.4 mph N/A   Clear
2:55 PM 68.0 °F - 35.6 °F 30% 29.45 in 10.0 mi West 15.0 mph 21.9 mph N/A   Clear
3:15 PM 68.0 °F - 35.6 °F 30% 29.45 in 10.0 mi WNW 18.4 mph 23.0 mph N/A   Clear
3:35 PM 68.0 °F - 35.6 °F 30% 29.46 in 10.0 mi West 15.0 mph - N/A   Clear
4:15 PM 66.2 °F - 32.0 °F 28% 29.46 in 10.0 mi WNW 16.1 mph 19.6 mph N/A   Partly Cloudy
4:35 PM 66.2 °F - 26.6 °F 23% 29.47 in 10.0 mi WNW 17.3 mph - N/A   Clear
4:55 PM 64.4 °F - 26.6 °F 24% 29.48 in 10.0 mi WNW 12.7 mph - N/A   Clear
5:15 PM 66.2 °F - 28.4 °F 24% 29.48 in 10.0 mi WNW 9.2 mph - N/A   Mostly Cloudy
5:35 PM 62.6 °F - 28.4 °F 27% 29.48 in 10.0 mi WNW 8.1 mph - N/A   Scattered Clouds
5:55 PM 62.6 °F - 28.4 °F 27% 29.49 in 10.0 mi WNW 6.9 mph - N/A   Scattered Clouds
6:15 PM 59.0 °F - 30.2 °F 34% 29.50 in 10.0 mi NW 6.9 mph - N/A   Scattered Clouds
6:35 PM 57.2 °F - 32.0 °F 38% 29.51 in 10.0 mi WNW 5.8 mph - N/A   Mostly Cloudy
6:55 PM 53.6 °F - 32.0 °F 44% 29.52 in 10.0 mi WNW 8.1 mph - N/A   Mostly Cloudy
7:15 PM 48.2 °F - 32.0 °F 54% 29.53 in 10.0 mi WNW 9.2 mph - N/A   Scattered Clouds
7:35 PM 48.2 °F - 28.4 °F 46% 29.54 in 10.0 mi West 9.2 mph - N/A   Scattered Clouds
7:55 PM 48.2 °F - 28.4 °F 46% 29.55 in 10.0 mi West 9.2 mph - N/A   Partly Cloudy
8:15 PM 48.2 °F - 28.4 °F 46% 29.55 in 10.0 mi West 10.4 mph - N/A   Clear
8:35 PM 46.4 °F 41.9 °F 28.4 °F 50% 29.56 in 10.0 mi West 9.2 mph - N/A   Partly Cloudy
8:55 PM 44.6 °F 39.7 °F 28.4 °F 53% 29.56 in 10.0 mi WNW 9.2 mph - N/A   Partly Cloudy
9:15 PM 42.8 °F 37.5 °F 28.4 °F 57% 29.58 in 10.0 mi WNW 9.2 mph - N/A   Clear
9:35 PM 44.6 °F 38.8 °F 28.4 °F 53% 29.59 in 10.0 mi WNW 11.5 mph - N/A   Partly Cloudy
9:55 PM 44.6 °F 38.8 °F 28.4 °F 53% 29.61 in 10.0 mi NW 11.5 mph - N/A   Clear
10:15 PM 44.6 °F 39.7 °F 30.2 °F 57% 29.61 in 10.0 mi NW 9.2 mph - N/A   Clear
10:35 PM 41.0 °F 35.8 °F 30.2 °F 65% 29.62 in 10.0 mi NW 8.1 mph - N/A   Clear
10:55 PM 39.2 °F 33.6 °F 28.4 °F 65% 29.64 in 10.0 mi WNW 8.1 mph - N/A   Clear
11:35 PM 39.2 °F 34.2 °F 30.2 °F 70% 29.66 in 10.0 mi WNW 6.9 mph - N/A   Scattered Clouds
11:55 PM 39.2 °F 33.0 °F 32.0 °F 75% 29.67 in 10.0 mi WNW 9.2 mph - N/A   Scattered Clouds